Location: Newark
(57.7279°N, 5.6916°W)
Time: 17:05:09
(UTC+00:00)

N. Korean satellite - Pass Details

Date: 10 December 2019
Orbit: 454 x 508 km, 97.2° (Epoch: 19 January)

Event Time Altitude Azimuth Distance (km) Brightness Sun altitude
Rises 04:57:49 0° 29° (NNE) 2,569 10.6 -29.5°
Reaches altitude 10° 05:01:22 10° 66° (ENE) 1,664 10.1 -29.0°
Maximum altitude 05:02:27 11° 84° (E) 1,590 10.1 -28.9°
Drops below altitude 10° 05:03:31 10° 102° (ESE) 1,650 10.1 -28.7°
Sets 05:06:58 0° 139° (SE) 2,505 10.7 -28.2°
